When you browse on this site, cookies collect data to enhance your experience and personalize the content and advertising you see.
Visit our Privacy Policy to learn more. By continuing to use the site, you agree to this use of cookies and data.
  • In Hungary
  • List of Countries
  • For 7 days
  • Water Temperature
  • Satellite Maps
  • Weather Map
  • News
  • Weather Widgets
  • user-avatar
    Login

    Hourly Weather Kozy

    Today, 18 November, Sunday

    Time Temperature Precipitation Wind Pressure Humidity
    00:00 -3°C° 0 mm 2 mps 739 mmHg 61%
    01:00 -3°C° 0 mm 2 mps 739 mmHg 65%
    02:00 -3°C° 0 mm 2 mps 738 mmHg 66%
    03:00 -3°C° 0 mm 2 mps 738 mmHg 67%
    04:00 -1°C° 0 mm 1 mps 737 mmHg 68%
    05:00 -1°C° 0 mm 1 mps 737 mmHg 69%
    06:00 -1°C° 0 mm 1 mps 736 mmHg 70%
    07:00 -1°C° 0 mm 1 mps 736 mmHg 71%
    08:00 0°C° 0 mm 1 mps 736 mmHg 66%
    09:00 +1°C° 0 mm 1 mps 736 mmHg 61%
    10:00 +1°C° 0 mm 2 mps 735 mmHg 57%
    11:00 +2°C° 0 mm 2 mps 735 mmHg 56%
    12:00 +3°C° 0 mm 2 mps 734 mmHg 54%
    13:00 +3°C° 0 mm 2 mps 734 mmHg 53%
    14:00 +2°C° 0.1 mm 2 mps 733 mmHg 57%
    15:00 +1°C° 0.1 mm 2 mps 733 mmHg 61%
    16:00 +1°C° 0.1 mm 2 mps 732 mmHg 65%
    17:00 -1°C° 0.1 mm 2 mps 732 mmHg 66%
    18:00 -1°C° 0.1 mm 2 mps 731 mmHg 66%
    19:00 -1°C° 0.1 mm 2 mps 731 mmHg 67%
    20:00 -2°C° 0 mm 2 mps 731 mmHg 69%
    21:00 -2°C° 0 mm 2 mps 731 mmHg 71%
    22:00 -2°C° 0 mm 2 mps 731 mmHg 72%
    23:00 -2°C° 0 mm 2 mps 730 mmHg 74%

    Tomorrow, 19 November, Monday

    Time Temperature Precipitation Wind Pressure Humidity
    00:00 -2°C° 0 mm 2 mps 730 mmHg 75%
    01:00 -3°C° 0 mm 2 mps 730 mmHg 77%
    02:00 -3°C° 0 mm 2 mps 729 mmHg 78%
    03:00 -3°C° 0 mm 2 mps 729 mmHg 78%
    04:00 -3°C° 0 mm 2 mps 729 mmHg 79%
    05:00 -3°C° 0 mm 2 mps 729 mmHg 80%
    06:00 -4°C° 0 mm 2 mps 729 mmHg 81%
    07:00 -4°C° 0 mm 2 mps 729 mmHg 82%
    08:00 -4°C° 0 mm 3 mps 729 mmHg 76%
    09:00 -2°C° 0 mm 3 mps 729 mmHg 69%
    10:00 -2°C° 0 mm 4 mps 729 mmHg 63%
    11:00 -1°C° 0 mm 4 mps 729 mmHg 62%
    12:00 -1°C° 0 mm 4 mps 729 mmHg 60%
    13:00 0°C° 0 mm 4 mps 729 mmHg 59%
    14:00 -1°C° 0 mm 4 mps 729 mmHg 62%
    15:00 0°C° 0 mm 3 mps 729 mmHg 64%
    16:00 -1°C° 0 mm 3 mps 729 mmHg 67%
    17:00 -1°C° 0 mm 3 mps 729 mmHg 69%
    18:00 -2°C° 0 mm 3 mps 730 mmHg 71%
    19:00 -2°C° 0 mm 3 mps 730 mmHg 73%
    20:00 -2°C° 0 mm 3 mps 730 mmHg 74%
    21:00 -2°C° 0 mm 3 mps 730 mmHg 75%
    22:00 -4°C° 0 mm 3 mps 730 mmHg 76%
    23:00 -4°C° 0 mm 3 mps 730 mmHg 77%

    Day after tomorrow, 20 November, Tuesday

    Time Temperature Precipitation Wind Pressure Humidity
    00:00 -4°C° 0 mm 3 mps 730 mmHg 79%
    01:00 -4°C° 0 mm 3 mps 730 mmHg 80%
    02:00 -4°C° 0 mm 3 mps 730 mmHg 81%
    03:00 -4°C° 0 mm 3 mps 730 mmHg 82%
    04:00 -4°C° 0 mm 3 mps 730 mmHg 82%
    05:00 -4°C° 0 mm 3 mps 730 mmHg 84%
    06:00 -4°C° 0 mm 3 mps 729 mmHg 85%
    07:00 -5°C° 0 mm 3 mps 729 mmHg 86%
    08:00 -2°C° 0 mm 3 mps 729 mmHg 81%
    09:00 -1°C° 0 mm 3 mps 729 mmHg 75%
    10:00 -1°C° 0 mm 4 mps 729 mmHg 70%
    11:00 0°C° 0 mm 4 mps 729 mmHg 68%
    12:00 0°C° 0 mm 4 mps 728 mmHg 66%
    13:00 +1°C° 0 mm 4 mps 728 mmHg 64%
    14:00 +1°C° 0.1 mm 4 mps 727 mmHg 67%
    15:00 0°C° 0.1 mm 4 mps 727 mmHg 71%
    16:00 0°C° 0.1 mm 4 mps 727 mmHg 74%
    17:00 0°C° 0.4 mm 4 mps 727 mmHg 77%
    18:00 0°C° 0.4 mm 4 mps 727 mmHg 80%
    19:00 0°C° 0.4 mm 4 mps 727 mmHg 83%
    20:00 -1°C° 0.7 mm 4 mps 726 mmHg 85%
    21:00 0°C° 0.7 mm 3 mps 726 mmHg 88%
    22:00 0°C° 0.7 mm 3 mps 726 mmHg 90%
    23:00 0°C° 0.1 mm 3 mps 726 mmHg 90%

    21 November, Wednesday

    Time Temperature Precipitation Wind Pressure Humidity
    00:00 0°C° 0.1 mm 3 mps 726 mmHg 91%
    01:00 0°C° 0.1 mm 3 mps 726 mmHg 91%
    02:00 0°C° 0 mm 3 mps 726 mmHg 91%
    03:00 +1°C° 0 mm 2 mps 726 mmHg 91%
    04:00 +1°C° 0 mm 2 mps 726 mmHg 91%
    05:00 +1°C° 0 mm 2 mps 726 mmHg 91%
    06:00 +1°C° 0 mm 2 mps 727 mmHg 90%
    07:00 +1°C° 0 mm 2 mps 727 mmHg 90%
    08:00 +1°C° 0 mm 3 mps 727 mmHg 89%
    09:00 +1°C° 0 mm 3 mps 727 mmHg 88%
    10:00 +2°C° 0 mm 3 mps 728 mmHg 86%
    11:00 +2°C° 0 mm 3 mps 728 mmHg 86%
    12:00 +2°C° 0 mm 3 mps 728 mmHg 85%
    13:00 +3°C° 0 mm 3 mps 728 mmHg 85%
    14:00 +2°C° 0 mm 3 mps 728 mmHg 86%
    15:00 +2°C° 0 mm 3 mps 728 mmHg 87%
    16:00 +1°C° 0 mm 3 mps 728 mmHg 89%
    17:00 +1°C° 0 mm 3 mps 728 mmHg 89%
    18:00 +1°C° 0 mm 3 mps 728 mmHg 89%
    19:00 0°C° 0 mm 3 mps 728 mmHg 90%
    20:00 0°C° 0 mm 3 mps 729 mmHg 90%
    21:00 0°C° 0 mm 3 mps 729 mmHg 90%
    22:00 0°C° 0 mm 3 mps 729 mmHg 90%
    23:00 0°C° 0 mm 3 mps 729 mmHg 91%

    22 November, Thursday

    Time Temperature Precipitation Wind Pressure Humidity
    00:00 0°C° 0 mm 3 mps 729 mmHg 91%
    01:00 0°C° 0 mm 3 mps 729 mmHg 91%
    02:00 0°C° 0.1 mm 3 mps 729 mmHg 91%
    03:00 0°C° 0.1 mm 3 mps 729 mmHg 91%
    04:00 0°C° 0.1 mm 3 mps 729 mmHg 90%
    05:00 0°C° 0.2 mm 3 mps 729 mmHg 91%
    06:00 0°C° 0.2 mm 3 mps 729 mmHg 91%
    07:00 0°C° 0.2 mm 3 mps 730 mmHg 91%
    08:00 +1°C° 0.1 mm 3 mps 730 mmHg 90%
    09:00 +1°C° 0.1 mm 3 mps 730 mmHg 88%
    10:00 +2°C° 0.1 mm 3 mps 731 mmHg 87%
    11:00 +3°C° 0.1 mm 2 mps 731 mmHg 86%
    12:00 +3°C° 0.1 mm 2 mps 731 mmHg 85%
    13:00 +4°C° 0.1 mm 2 mps 731 mmHg 85%
    14:00 +4°C° 0.2 mm 2 mps 731 mmHg 86%
    15:00 +3°C° 0.2 mm 2 mps 731 mmHg 88%
    16:00 +3°C° 0.2 mm 2 mps 731 mmHg 89%
    17:00 +3°C° 0.1 mm 2 mps 732 mmHg 90%
    18:00 +3°C° 0.1 mm 2 mps 732 mmHg 91%
    19:00 +2°C° 0.1 mm 2 mps 732 mmHg 91%
    20:00 +3°C° 0.1 mm 2 mps 732 mmHg 91%
    21:00 +3°C° 0.1 mm 2 mps 732 mmHg 91%
    22:00 +3°C° 0.1 mm 2 mps 733 mmHg 91%
    23:00 +4°C° 0.1 mm 1 mps 733 mmHg 92%

    23 November, Friday

    Time Temperature Precipitation Wind Pressure Humidity
    00:00 +4°C° 0.1 mm 1 mps 733 mmHg 92%
    01:00 +4°C° 0.1 mm 1 mps 733 mmHg 92%
    02:00 +4°C° 0 mm 1 mps 733 mmHg 93%
    03:00 +4°C° 0 mm 1 mps 733 mmHg 93%
    04:00 +4°C° 0 mm 1 mps 733 mmHg 93%
    05:00 +4°C° 0 mm 1 mps 733 mmHg 93%
    06:00 +4°C° 0 mm 1 mps 733 mmHg 92%
    07:00 +4°C° 0 mm 1 mps 733 mmHg 92%
    08:00 +5°C° 0 mm 1 mps 734 mmHg 89%
    09:00 +6°C° 0 mm 1 mps 734 mmHg 87%
    10:00 +7°C° 0 mm 1 mps 734 mmHg 84%
    11:00 +8°C° 0 mm 1 mps 734 mmHg 81%
    12:00 +8°C° 0 mm 1 mps 734 mmHg 79%
    13:00 +9°C° 0 mm 1 mps 734 mmHg 76%
    14:00 +8°C° 0 mm 1 mps 734 mmHg 79%
    15:00 +7°C° 0 mm 1 mps 733 mmHg 83%
    16:00 +6°C° 0 mm 1 mps 733 mmHg 86%
    17:00 +6°C° 0 mm 1 mps 733 mmHg 86%
    18:00 +6°C° 0 mm 1 mps 733 mmHg 86%
    19:00 +6°C° 0 mm 1 mps 733 mmHg 86%
    20:00 +6°C° 0 mm 1 mps 733 mmHg 86%
    21:00 +6°C° 0 mm 1 mps 733 mmHg 87%
    22:00 +6°C° 0 mm 1 mps 733 mmHg 87%
    23:00 +6°C° 0.1 mm 1 mps 733 mmHg 88%
    Show more